Location: Brede
(50.9167°N, 0.6000°E)
Time: 19:24:53
(UTC+00:00)

NOSS 2-3 (D) - Pass Details

Date: 08 August 2020
Orbit: 573 x 1638 km, 63.4° (Epoch: 22 September)

Event Time Altitude Azimuth Distance (km) Brightness Sun altitude
Exits shadow 03:37:57 - 212° (SSW) 2,000 5.6 -8.3°
Reaches altitude 10° 03:38:07 10° 211° (SSW) 1,937 5.5 -8.3°
Maximum altitude 03:42:21 68° 129° (SE) 713 3.9 -7.8°
Drops below altitude 10° 03:47:28 10° 47° (NE) 2,327 8.3 -7.1°
Sets 03:50:11 0° 45° (NE) 3,416 9.6 -6.8°
